THOR ABLESTAR DEB, 260

Orbit data source: Space-Track

THOR ABLESTAR DEB, 260 is space debris in LEO originally from a launch on Thu, 29 Jun 1961 UTC launched from the Air Force Eastern Test Range (AFETR). Debris objects in space refer to the collection of defunct objects orbiting the Earth. Examples of debris include non-operational satellites, rocket bodies, and fragments generated from explosions, collisions, or faulty payload assembly.

Loading next visibility...
Identifier
260, 1961-015CG
Orbit
LEO
Country
Flag of USUS
Related business
Manufacturer
Unknown
Mission
Spacecraft
Bus & Motor
Unknown
Mass
Unknown
Launch date (UTC)
1961-06-29 (65 years ago)
Launch vehicle
Unknown
Launch site
Air Force Eastern Test Range (AFETR)
Object type
Payload
Rocket body
Debris
Shape & HBR
Unknown shape, 0.1 m
Radar Cross Section
Small (<0.1 m²)

Expand to show TLE details & history
Last TLE update: 18 hours ago

TLE from 18 hours ago
0 THOR ABLESTAR DEB
1 00260U 61015CG  26130.87937633  .00001263  00000-0  38965-3 0  9995
2 00260  66.7667 300.6385 0038929 155.1915 205.1074 14.44199731350955
Epoch: 2026-05-10T21:06Z
TLE epoch observation values (Epoch: 2026-05-10T21:06:18.114Z)
Latitude
-0.00005°
Longitude
115.38688°
Altitude
771.913 km
Speed
7.455 km/s
True Right ascension
20h 02m 33s
True Declination
0° 00' 00"
Sunlit
Object was in daylight at epoch
Visualization orbit readout
Latitude
Unknown
Longitude
Unknown
Altitude
Unknown
Speed
Unknown
Apparent Right ascension
Unknown
Apparent Declination
Unknown
Sunlit
N/A
Visualization observer readout
Local Sidereal Time
23:51:58
Azimuth
Unknown
Elevation
Unknown
Doppler factor
Unknown
Orbital elements
Apogee altitude
770.734 km
Perigee altitude
715.291 km
Semi-major axis
7,121.149 km
Eccentricity
0.00389
Inclination
66.7667°
RAAN
300.6385°
Arg. of periapsis
155.1915°
True anomaly
204.91895°
Mean anomaly
205.1074°
Eccentric anomaly
205.01309°
Mean motion
3.61175 °/min
Orbital period
99.67 mins
BSTAR
0.00038965
Loading maneuver chart data...
Computing Atmospheric mass density...

Documentation

Showing up to 5 results
|